Starlink 32789

operational
NORAD ID: 62529 Int'l Des: 2025-004 Owner: SPXS Country: US Constellation: starlink
LEOCIRCULAR

About Starlink 32789

Description loading...

Live Position

Loading 3D Globe...

Upcoming Passes

Altitude History

Altitude vs Time

uPlot chart will show altitude changes over time

Two-Line Element Set

1 62529U 25004U 25259.34529886 .00040033 00000-0 14545-2 0 9994
2 62529 43.0023 124.5822 0002244 268.8213 91.2381 15.27622742 39794
Epoch: Sep 16, 2025 • Age: 71 hours

Current Status

Altitude 484.7 km
Velocity 7.63 km/s
Sub-Earth Point 33.00°N, 133.76°E
Launch Date Jan 8, 2025
Age 0.6 years
Type internet

Technical Details

Classification Payload
Mass 730.00 kg
Dry Mass 700.00 kg
Total Mass 730.00 kg
Length 0.30 m
Diameter 4.10 m
Span 29.00 m
Shape Box + pan
Manufacturer SPXS
Bus Type Starlink V2M
Phase Status In Orbit
Owner/State SPXS/US

Large Constellations

Loading constellations...